| time (UTC) | temp C | wind direction | speed KPH | gust KPH | rain 1hr cm | rain 24hr cm | rain mn cm | humidity % | barometer mb |
| 20260505004003 | 15 | 245 | 3.2 | 20.9 | 0.00 | 0.00 | 0.00 | 81 | |
| 20260505003003 | 15 | 219 | 3.2 | 12.9 | 0.00 | 0.00 | 0.00 | 81 | |
| 20260505002003 | 15 | 214 | 3.2 | 22.5 | 0.00 | 0.00 | 0.00 | 83 | |
| 20260505001003 | 15 | 275 | 3.2 | 17.7 | 0.00 | 0.00 | 0.00 | 81 | |
| 20260505000004 | 15 | 265 | 6.4 | 17.7 | 0.00 | 0.00 | 0.00 | 81 | |
| 20260504235002 | 15 | 236 | 3.2 | 19.3 | 0.00 | 0.00 | 0.00 | 80 | |
| 20260504234003 | 16 | 177 | 3.2 | 17.7 | 0.00 | 0.00 | 0.00 | 79 | |
| 20260504233003 | 16 | 229 | 3.2 | 20.9 | 0.00 | 0.00 | 0.00 | 77 | |
| 20260504232003 | 16 | 212 | 3.2 | 20.9 | 0.00 | 0.00 | 0.00 | 78 | |
| 20260504231003 | 16 | 237 | 4.8 | 19.3 | 0.00 | 0.00 | 0.00 | 75 | |
| 20260504230003 | 16 | 152 | 1.6 | 12.9 | 0.00 | 0.00 | 0.00 | 76 | |
| 20260504225003 | 16 | 210 | 3.2 | 22.5 | 0.00 | 0.00 | 0.00 | 81 | |
| 20260504223002 | 16 | 175 | 6.4 | 24.1 | 0.00 | 0.00 | 0.00 | 79 | |
| 20260504222003 | 16 | 182 | 1.6 | 19.3 | 0.00 | 0.00 | 0.00 | 75 | |
| 20260504221003 | 16 | 251 | 4.8 | 12.9 | 0.00 | 0.00 | 0.00 | 75 | |
| 20260504220003 | 16 | 186 | 1.6 | 17.7 | 0.00 | 0.00 | 0.00 | 73 | |
| 20260504215003 | 17 | 239 | 4.8 | 17.7 | 0.00 | 0.00 | 0.00 | 72 | |
| 20260504214003 | 16 | 276 | 6.4 | 20.9 | 0.00 | 0.00 | 0.00 | 75 | |
| 20260504213004 | 16 | 233 | 8.0 | 20.9 | 0.00 | 0.00 | 0.00 | 76 | |
| 20260504212003 | 16 | 264 | 6.4 | 20.9 | 0.00 | 0.00 | 0.00 | 75 | |
| 20260504211002 | 16 | 229 | 1.6 | 16.1 | 0.00 | 0.00 | 0.00 | 76 | |
| 20260504210004 | 17 | 206 | 3.2 | 12.9 | 0.00 | 0.00 | 0.00 | 72 | |
| 20260504205003 | 17 | 270 | 6.4 | 20.9 | 0.00 | 0.00 | 0.00 | 73 | |
| 20260504204003 | 16 | 255 | 6.4 | 19.3 | 0.00 | 0.00 | 0.00 | 72 | |
| 20260504203003 | 17 | 210 | 3.2 | 17.7 | 0.00 | 0.00 | 0.00 | 73 | |
| 20260504202002 | 17 | 290 | 8.0 | 20.9 | 0.00 | 0.00 | 0.00 | 72 | |
| 20260504201003 | 17 | 240 | 1.6 | 16.1 | 0.00 | 0.00 | 0.00 | 71 | |
| 20260504200003 | 17 | 212 | 3.2 | 16.1 | 0.00 | 0.00 | 0.00 | 71 | |
| 20260504195003 | 17 | 272 | 6.4 | 17.7 | 0.00 | 0.00 | 0.00 | 72 | |
| 20260504194003 | 18 | 217 | 3.2 | 9.7 | 0.00 | 0.00 | 0.00 | 70 | |
| 20260504193003 | 18 | 237 | 1.6 | 12.9 | 0.00 | 0.00 | 0.00 | 73 | |
| 20260504192003 | 17 | 236 | 1.6 | 11.3 | 0.00 | 0.00 | 0.00 | 73 | |
| 20260504191003 | 17 | 120 | 1.6 | 8.0 | 0.00 | 0.00 | 0.00 | 74 | |
| 20260504190003 | 16 | 81 | 1.6 | 11.3 | 0.00 | 0.00 | 0.00 | 79 | |
| 20260504185002 | 17 | 116 | 0.0 | 6.4 | 0.00 | 0.00 | 0.00 | 79 | |
| 20260504184003 | 16 | 253 | 4.8 | 11.3 | 0.00 | 0.00 | 0.00 | 79 | |
| 20260504183003 | 16 | 207 | 1.6 | 8.0 | 0.00 | 0.00 | 0.00 | 81 | |
| 20260504182003 | 16 | 75 | 1.6 | 8.0 | 0.00 | 0.00 | 0.00 | 81 | |
| 20260504181003 | 16 | 221 | 3.2 | 8.0 | 0.00 | 0.00 | 0.00 | 81 | |
| 20260504180003 | 15 | 63 | 1.6 | 6.4 | 0.00 | 0.00 | 0.00 | 80 | |
| 20260504175003 | 15 | 103 | 3.2 | 8.0 | 0.00 | 0.00 | 0.00 | 80 | |
| 20260504174002 | 16 | 152 | 0.0 | 11.3 | 0.00 | 0.00 | 0.00 | 80 | |
| 20260504173003 | 15 | 108 | 4.8 | 11.3 | 0.00 | 0.00 | 0.00 | 86 | |
| 20260504172003 | 15 | 160 | 1.6 | 6.4 | 0.00 | 0.00 | 0.00 | 78 | |
| 20260504171003 | 15 | 159 | 0.0 | 8.0 | 0.00 | 0.00 | 0.00 | 80 | |
| 20260504151003 | 13 | 199 | 0.0 | 11.3 | 0.00 | 0.00 | 0.00 | 92 | |
| 20260504141008 | 11 | 189 | 0.0 | 1.6 | 0.00 | 0.00 | 0.00 | ||
| 20260504082008 | 12 | 303 | 1.6 | 8.0 | 0.00 | 0.00 | 0.00 | 96 | |
| 20260504081002 | 12 | 264 | 1.6 | 6.4 | 0.00 | 0.00 | 0.00 | 95 | |
| 20260504050004 | 15 | 176 | 4.8 | 6.4 | 0.00 | 0.00 | 0.00 | 83 | |
| 20260504045003 | 16 | 183 | 3.2 | 4.8 | 0.00 | 0.00 | 0.00 | 83 | |
| 20260504044003 | 16 | 178 | 3.2 | 6.4 | 0.00 | 0.00 | 0.00 | 83 | |
| 20260504043004 | 16 | 173 | 0.0 | 3.2 | 0.00 | 0.00 | 0.00 | 82 | |
| 20260504042002 | 17 | 193 | 1.6 | 3.2 | 0.00 | 0.00 | 0.00 | 79 | |
| 20260504041002 | 17 | 135 | 1.6 | 4.8 | 0.00 | 0.00 | 0.00 | 79 | |
| 20260504040003 | 18 | 179 | 3.2 | 4.8 | 0.00 | 0.00 | 0.00 | 76 | |
| 20260504035003 | 18 | 180 | 3.2 | 4.8 | 0.00 | 0.00 | 0.00 | 76 | |
| 20260504034003 | 20 | 199 | 0.0 | 4.8 | 0.00 | 0.00 | 0.00 | 68 | |
| 20260504033008 | 21 | 154 | 1.6 | 11.3 | 0.00 | 0.00 | 0.00 | 63 | |
| 20260504032003 | 24 | 246 | 3.2 | 22.5 | 0.00 | 0.00 | 0.00 | 37 | |
| 20260504031002 | 23 | 278 | 3.2 | 19.3 | 0.00 | 0.00 | 0.00 | 41 | |
| 20260504030003 | 23 | 278 | 4.8 | 14.5 | 0.00 | 0.00 | 0.00 | 39 | |
| 20260504025003 | 23 | 278 | 6.4 | 16.1 | 0.00 | 0.00 | 0.00 | 40 | |
| 20260504024003 | 24 | 277 | 4.8 | 17.7 | 0.00 | 0.00 | 0.00 | 41 | |
| 20260504023003 | 25 | 287 | 6.4 | 12.9 | 0.00 | 0.00 | 0.00 | 40 | |
| 20260504022003 | 25 | 282 | 6.4 | 12.9 | 0.00 | 0.00 | 0.00 | 44 | |
| 20260504021002 | 25 | 278 | 6.4 | 12.9 | 0.00 | 0.00 | 0.00 | 42 | |
| 20260504020003 | 25 | 274 | 4.8 | 16.1 | 0.00 | 0.00 | 0.00 | 41 | |
| 20260504015003 | 26 | 283 | 4.8 | 16.1 | 0.00 | 0.00 | 0.00 | 42 | |
| 20260504014003 | 26 | 275 | 6.4 | 14.5 | 0.00 | 0.00 | 0.00 | 39 | |
| 20260504013003 | 26 | 273 | 6.4 | 12.9 | 0.00 | 0.00 | 0.00 | 39 | |
| 20260504012007 | 27 | 272 | 4.8 | 12.9 | 0.00 | 0.00 | 0.00 | 37 | |
| 20260504011002 | 27 | 271 | 4.8 | 12.9 | 0.00 | 0.00 | 0.00 | 39 | |
| 20260504010003 | 27 | 276 | 6.4 | 12.9 | 0.00 | 0.00 | 0.00 | 35 | |
| 20260504005003 | 27 | 288 | 6.4 | 14.5 | 0.00 | 0.00 | 0.00 | 34 |